When you browse on this site, cookies collect data to enhance your experience and personalize the content and advertising you see.
Visit our Privacy Policy to learn more. By continuing to use the site, you agree to this use of cookies and data.
  • In Latvia
  • List of Countries
  • For 7 days
  • Water Temperature
  • Weather Map
  • Weather Widgets
  • user-avatar
    Login

    Hourly Weather Walowice

    Today, 24 February, Monday

    Time Temperature Precipitation Wind Pressure Humidity
    00:00 +2°C° 0.5 mm 7 mps 735 mmHg 94%
    01:00 +1°C° 0 mm 11 mps 737 mmHg 93%
    02:00 -1°C° 0.6 mm 11 mps 738 mmHg 90%
    03:00 -1°C° 0.6 mm 11 mps 739 mmHg 87%
    04:00 -1°C° 0.6 mm 11 mps 741 mmHg 84%
    05:00 -1°C° 0.1 mm 11 mps 742 mmHg 83%
    06:00 0°C° 0.1 mm 10 mps 743 mmHg 82%
    07:00 0°C° 0.1 mm 10 mps 744 mmHg 81%
    08:00 +1°C° 0 mm 9 mps 745 mmHg 78%
    09:00 +1°C° 0 mm 9 mps 746 mmHg 75%
    10:00 +2°C° 0 mm 9 mps 746 mmHg 72%
    11:00 +2°C° 0 mm 8 mps 747 mmHg 74%
    12:00 +2°C° 0 mm 8 mps 747 mmHg 77%
    13:00 +3°C° 0 mm 7 mps 747 mmHg 79%
    14:00 +3°C° 0.1 mm 6 mps 747 mmHg 75%
    15:00 +3°C° 0.1 mm 6 mps 747 mmHg 71%
    16:00 +5°C° 0.1 mm 5 mps 747 mmHg 67%
    17:00 +3°C° 0 mm 5 mps 746 mmHg 70%
    18:00 +3°C° 0 mm 5 mps 746 mmHg 72%
    19:00 +3°C° 0 mm 4 mps 746 mmHg 75%
    20:00 +3°C° 0 mm 4 mps 745 mmHg 76%
    21:00 +3°C° 0 mm 4 mps 745 mmHg 77%
    22:00 +1°C° 0 mm 4 mps 744 mmHg 79%
    23:00 +1°C° 0.3 mm 4 mps 743 mmHg 84%

    Tomorrow, 25 February, Tuesday

    Time Temperature Precipitation Wind Pressure Humidity
    00:00 +1°C° 0.3 mm 5 mps 742 mmHg 89%
    01:00 -1°C° 0.3 mm 6 mps 740 mmHg 95%
    02:00 +1°C° 1.6 mm 6 mps 739 mmHg 93%
    03:00 +2°C° 1.6 mm 7 mps 738 mmHg 90%
    04:00 +3°C° 1.6 mm 7 mps 736 mmHg 88%
    05:00 +4°C° 0.6 mm 7 mps 736 mmHg 89%
    06:00 +5°C° 0.6 mm 8 mps 736 mmHg 89%
    07:00 +6°C° 0.6 mm 8 mps 735 mmHg 90%
    08:00 +6°C° 0.2 mm 8 mps 735 mmHg 87%
    09:00 +6°C° 0.2 mm 8 mps 735 mmHg 85%
    10:00 +7°C° 0.2 mm 8 mps 735 mmHg 82%
    11:00 +8°C° 0.1 mm 7 mps 735 mmHg 80%
    12:00 +9°C° 0.1 mm 7 mps 735 mmHg 77%
    13:00 +9°C° 0.1 mm 7 mps 734 mmHg 74%
    14:00 +9°C° 0.1 mm 6 mps 734 mmHg 74%
    15:00 +9°C° 0.1 mm 5 mps 733 mmHg 75%
    16:00 +9°C° 0.1 mm 5 mps 733 mmHg 75%
    17:00 +8°C° 0.7 mm 6 mps 733 mmHg 79%
    18:00 +8°C° 0.7 mm 6 mps 733 mmHg 82%
    19:00 +6°C° 0.7 mm 7 mps 733 mmHg 86%
    20:00 +5°C° 0.5 mm 6 mps 733 mmHg 82%
    21:00 +5°C° 0.5 mm 5 mps 733 mmHg 78%
    22:00 +5°C° 0.5 mm 4 mps 733 mmHg 75%
    23:00 +4°C° 0 mm 4 mps 733 mmHg 76%

    Day after tomorrow, 26 February, Wednesday

    Time Temperature Precipitation Wind Pressure Humidity
    00:00 +3°C° 0 mm 4 mps 733 mmHg 76%
    01:00 +3°C° 0 mm 3 mps 733 mmHg 77%
    02:00 +2°C° 0 mm 3 mps 732 mmHg 79%
    03:00 +2°C° 0 mm 3 mps 732 mmHg 80%
    04:00 +2°C° 0 mm 3 mps 732 mmHg 82%
    05:00 +2°C° 0 mm 3 mps 732 mmHg 83%
    06:00 +1°C° 0 mm 3 mps 731 mmHg 84%
    07:00 +1°C° 0 mm 3 mps 731 mmHg 85%
    08:00 +2°C° 0 mm 3 mps 731 mmHg 78%
    09:00 +3°C° 0 mm 3 mps 731 mmHg 71%
    10:00 +4°C° 0 mm 3 mps 731 mmHg 64%
    11:00 +5°C° 0 mm 3 mps 731 mmHg 61%
    12:00 +6°C° 0 mm 4 mps 731 mmHg 59%
    13:00 +6°C° 0 mm 4 mps 731 mmHg 56%
    14:00 +6°C° 0 mm 4 mps 731 mmHg 59%
    15:00 +6°C° 0 mm 4 mps 730 mmHg 62%
    16:00 +6°C° 0 mm 4 mps 730 mmHg 66%
    17:00 +5°C° 0.1 mm 4 mps 731 mmHg 72%
    18:00 +3°C° 0.1 mm 4 mps 731 mmHg 78%
    19:00 +1°C° 0.1 mm 5 mps 732 mmHg 85%
    20:00 +1°C° 0.3 mm 5 mps 732 mmHg 88%
    21:00 +1°C° 0.3 mm 5 mps 732 mmHg 91%
    22:00 0°C° 0.3 mm 5 mps 732 mmHg 94%
    23:00 0°C° 0.5 mm 5 mps 733 mmHg 92%

    27 February, Thursday

    Time Temperature Precipitation Wind Pressure Humidity
    00:00 0°C° 0.5 mm 5 mps 733 mmHg 90%
    01:00 0°C° 0.5 mm 5 mps 734 mmHg 89%
    02:00 -1°C° 0 mm 5 mps 734 mmHg 87%
    03:00 -1°C° 0 mm 5 mps 734 mmHg 85%
    04:00 -2°C° 0 mm 6 mps 735 mmHg 84%
    05:00 -2°C° 0.1 mm 6 mps 735 mmHg 85%
    06:00 -2°C° 0.1 mm 6 mps 736 mmHg 86%
    07:00 -3°C° 0.1 mm 6 mps 737 mmHg 87%
    08:00 -1°C° 0.1 mm 5 mps 737 mmHg 83%
    09:00 -1°C° 0.1 mm 5 mps 738 mmHg 79%
    10:00 0°C° 0.1 mm 4 mps 738 mmHg 75%
    11:00 0°C° 0.2 mm 4 mps 739 mmHg 73%
    12:00 +1°C° 0.2 mm 4 mps 739 mmHg 70%
    13:00 +1°C° 0.2 mm 4 mps 739 mmHg 67%
    14:00 +1°C° 0.2 mm 4 mps 739 mmHg 68%
    15:00 +1°C° 0.2 mm 4 mps 739 mmHg 68%
    16:00 +1°C° 0.2 mm 4 mps 739 mmHg 69%
    17:00 0°C° 0.1 mm 4 mps 739 mmHg 73%
    18:00 0°C° 0.1 mm 3 mps 739 mmHg 77%
    19:00 0°C° 0.1 mm 3 mps 740 mmHg 82%
    20:00 -1°C° 0 mm 2 mps 740 mmHg 82%
    21:00 +1°C° 0 mm 1 mps 740 mmHg 83%
    22:00 +1°C° 0 mm 1 mps 740 mmHg 84%
    23:00 +1°C° 0 mm 1 mps 739 mmHg 84%

    28 February, Friday

    Time Temperature Precipitation Wind Pressure Humidity
    00:00 0°C° 0 mm 1 mps 739 mmHg 84%
    01:00 -1°C° 0 mm 0 mps 739 mmHg 83%
    02:00 0°C° 0 mm 1 mps 739 mmHg 83%
    03:00 0°C° 0 mm 1 mps 738 mmHg 83%
    04:00 0°C° 0 mm 1 mps 738 mmHg 83%
    05:00 -2°C° 0 mm 2 mps 738 mmHg 81%
    06:00 -2°C° 0 mm 3 mps 738 mmHg 80%
    07:00 -2°C° 0 mm 3 mps 738 mmHg 79%
    08:00 -2°C° 0 mm 4 mps 738 mmHg 74%
    09:00 -2°C° 0 mm 5 mps 738 mmHg 68%
    10:00 -1°C° 0 mm 5 mps 738 mmHg 63%
    11:00 -1°C° 0 mm 5 mps 739 mmHg 59%
    12:00 -1°C° 0 mm 5 mps 739 mmHg 55%
    13:00 0°C° 0 mm 4 mps 740 mmHg 51%
    14:00 0°C° 0 mm 4 mps 741 mmHg 51%
    15:00 -1°C° 0 mm 4 mps 742 mmHg 51%
    16:00 -1°C° 0 mm 4 mps 743 mmHg 51%
    17:00 -1°C° 0 mm 3 mps 744 mmHg 53%
    18:00 -2°C° 0 mm 3 mps 744 mmHg 56%
    19:00 -3°C° 0 mm 2 mps 745 mmHg 58%
    20:00 -3°C° 0 mm 2 mps 745 mmHg 57%
    21:00 -3°C° 0 mm 2 mps 746 mmHg 55%
    22:00 -1°C° 0 mm 1 mps 746 mmHg 54%
    23:00 -1°C° 0 mm 1 mps 746 mmHg 52%

    29 February, Saturday

    Time Temperature Precipitation Wind Pressure Humidity
    00:00 -1°C° 0 mm 1 mps 746 mmHg 50%
    01:00 -1°C° 0 mm 1 mps 747 mmHg 48%
    02:00 -1°C° 0 mm 1 mps 746 mmHg 48%
    03:00 -2°C° 0 mm 1 mps 746 mmHg 48%
    04:00 -4°C° 0 mm 2 mps 746 mmHg 47%
    05:00 -4°C° 0 mm 2 mps 746 mmHg 47%
    06:00 -4°C° 0 mm 2 mps 746 mmHg 48%
    07:00 -4°C° 0 mm 2 mps 746 mmHg 48%
    08:00 -4°C° 0 mm 3 mps 746 mmHg 43%
    09:00 -3°C° 0 mm 4 mps 746 mmHg 38%
    10:00 -2°C° 0 mm 4 mps 746 mmHg 33%
    11:00 -1°C° 0 mm 5 mps 745 mmHg 32%
    12:00 0°C° 0 mm 5 mps 744 mmHg 31%
    13:00 -1°C° 0 mm 6 mps 744 mmHg 29%
    14:00 -1°C° 0 mm 6 mps 743 mmHg 31%
    15:00 -1°C° 0 mm 6 mps 742 mmHg 34%
    16:00 -1°C° 0 mm 6 mps 742 mmHg 36%
    17:00 -2°C° 0 mm 7 mps 741 mmHg 41%
    18:00 -2°C° 0 mm 7 mps 740 mmHg 46%
    19:00 -4°C° 0 mm 8 mps 740 mmHg 51%
    20:00 -4°C° 0.1 mm 8 mps 739 mmHg 61%
    21:00 -4°C° 0.1 mm 9 mps 738 mmHg 72%
    22:00 -4°C° 0.1 mm 9 mps 737 mmHg 82%
    23:00 -4°C° 0.4 mm 9 mps 736 mmHg 83%
    Show more